Regional Weather Roundup
Issued by NWS

Home | Current Version | Previous Version | Text Only | Print | Product List | Glossary On
Versions: 1 2 3 4 5 6 7 8 9 10 11 12 13 14 15 16 17 18 19 20 21 22 23 24 25 26 27 28 29
000
ASUS44 KLIX 260511
RWRLA
LOUISIANA WEATHER ROUNDUP
NATIONAL WEATHER SERVICE NEW ORLEANS LA
1200 AM CDT TUE JUL 26 2016

NOTE: "FAIR" INDICATES FEW OR NO CLOUDS BELOW 12,000 FEET WITH NO
      SIGNIFICANT WEATHER AND/OR OBSTRUCTIONS TO VISIBILITY.
      SKY/WX - SKY CONDITION AND SIGNIFICANT WEATHER.
      TMP - AIR TEMPERATURE.    DP   - DEWPOINT TEMPERATURE.
      RH  - RELATIVE HUMIDITY.  PRES - PRESSURE.
      HX  - HEAT INDEX.         WCI  - WIND CHILL INDEX.

*  THESE STATIONS ARE NOT NWS OR FAA STATIONS AND ARE NOT UNDER
   NWS QUALITY CONTROL.

LAZ040-048-061>063-065-066-069-260600-
SOUTHEAST LOUISIANA

CITY           SKY/WX    TMP DP  RH WIND       PRES   REMARKS
N.O. AUDUBON     N/A     81  76  84 MISG        N/A
N.O. INTL ARPT PTCLDY    82  76  81 CALM      29.92F
N.O. LAKEFRONT CLEAR     83  76  79 E3        29.93S
N.O. DOWNTOWN* FAIR      83  75  77 CALM      29.93F
RESERVE*       FAIR      79  77  94 CALM      29.92F
SLIDELL        CLEAR     77  75  93 NE3       29.94R
BATON ROUGE    PTCLDY    77  74  90 NE3       29.93F
BOOTHVILLE     CLEAR     81  77  88 S3        29.93F
BELLE CHASSE   CLEAR     77  76  96 CALM      29.92F
BOGALUSA*      FAIR      77  73  88 CALM      29.96S
GALLIANO*      PTCLDY    73  73 100 CALM      29.92F
NEW ROADS*     FAIR      76  76  98 CALM      29.93S
GONZALES*      FAIR      77  77 100 CALM      29.92F
HAMMOND*       CLOUDY    75  72  88 CALM      29.93F
HOUMA*         CLEAR     75  75  98 N3        29.93F
PORT FOURCHON* CLEAR     82  77  83 N3        29.92F

$$

LAZ041-044-053-054-260600-
SOUTHWEST LOUISIANA

CITY           SKY/WX    TMP DP  RH WIND       PRES   REMARKS
LAKE CHARLES   CLOUDY    76  74  93 NE5       29.93R
LAFAYETTE      CLOUDY    77  75  93 CALM      29.93F
PATTERSON      MOCLDY    78  77  96 NE3       29.93F
SALT POINT       N/A     78  77  96 CALM        N/A
NEW IBERIA     PTCLDY    75  73  93 CALM      29.94F
CHENAULT AIRPK MOCLDY    75  74  97 CALM      29.93R

$$

LAZ027-028-260600-
CENTRAL LOUISIANA

CITY           SKY/WX    TMP DP  RH WIND       PRES   REMARKS
FORT POLK      PTCLDY    74  73  96 N2        29.92S
ALEXANDRIA INT CLEAR     74  74 100 CALM      29.92F
ALEXANDRIA     CLEAR     75  75 100 CALM      29.94S

$$

LAZ001-002-260600-
NORTHWEST LOUISIANA

CITY           SKY/WX    TMP DP  RH WIND       PRES   REMARKS
SHREVEPORT     PTCLDY    78  74  87 CALM      29.92F
BARKSDALE AFB  CLEAR     76  72  87 SE7       29.92F
DTN SHREVEPORT CLEAR     78  72  81 E3        29.92F

$$

LAZ014-016-260600-
NORTHEAST LOUISIANA

CITY           SKY/WX    TMP DP  RH WIND       PRES   REMARKS
MONROE         CLEAR     77  75  93 CALM      29.95F
TALLULAH       CLEAR     76  73  91 NW3       29.95S

$$





USA.gov is the U.S. government's official web portal to all federal, state and local government web resources and services.